Hourly Data Report for September 25, 2006

TORONTO CITY
ONTARIO

43°40'00.000" N
79°24'00.000" W
112.50 m
6158355
71508
XTO

Download Data

Hourly Data (September 2006)
Hourly Data Report for September 25, 2006
TIME
LST
Temp Definition
°C
Dew Point Definition
°C
Rel Hum Definition
%
Precip. Amount Definition
mm

Wind Dir Definition
10's deg

Wind Spd Definition
km/h
Visibility Definition
km
Stn Press Definition
kPa
Hmdx Definition


Wind Chill Definition


Weather Definition


00:00 11.8 9.5 86   LegendMM LegendMM   99.62     LegendNANA
01:00 11.1 9.5 90   LegendMM LegendMM   99.63     LegendNANA
02:00 11.7 9.5 86   LegendMM LegendMM   99.64     LegendNANA
03:00 11.5 8.7 83   LegendMM LegendMM   99.63     LegendNANA
04:00 11.1 8.7 85   LegendMM LegendMM   99.66     LegendNANA
05:00 10.4 8.0 85   LegendMM LegendMM   99.70     LegendNANA
06:00 9.4 7.7 89   LegendMM LegendMM   99.71     LegendNANA
07:00 10.2 8.9 92   LegendMM LegendMM   99.75     LegendNANA
08:00 11.7 8.3 80   LegendMM LegendMM   99.75     LegendNANA
09:00 13.0 7.7 70   LegendMM LegendMM   99.76     LegendNANA
10:00 14.0 8.3 68   LegendMM LegendMM   99.75     LegendNANA
11:00 15.3 8.5 64   LegendMM LegendMM   99.70     LegendNANA
12:00 15.4 8.5 63   LegendMM LegendMM   99.61     LegendNANA
13:00 16.6 7.9 56   LegendMM LegendMM   99.52     LegendNANA
14:00 16.6 8.9 60   LegendMM LegendMM   99.46     LegendNANA
15:00 16.7 10.6 67   LegendMM LegendMM   99.39     LegendNANA
16:00 17.6 9.6 59   LegendMM LegendMM   99.36     LegendNANA
17:00 16.9 11.3 70   LegendMM LegendMM   99.36     LegendNANA
18:00 16.4 11.9 75   LegendMM LegendMM   99.37     LegendNANA
19:00 14.0 10.6 80   LegendMM LegendMM   99.53     LegendNANA
20:00 13.9 10.9 82   LegendMM LegendMM   99.54     LegendNANA
21:00 13.7 11.0 84   LegendMM LegendMM   99.62     LegendNANA
22:00 13.0 11.0 88   LegendMM LegendMM   99.66     LegendNANA
23:00 12.5 9.6 82   LegendMM LegendMM   99.71     LegendNANA

Notes on Data Quality.

Legend

  • E = Estimated
  • M = Missing
  • NA = Not Available*
  • [empty] = Indicates an unobserved value
Date modified: